Zurück zum Katalog

METEOR 2-8 DEB

AktivPO
NORAD 36328·DEBRIS·🇷🇺 Russia

Gestartet Mar 25, 1982 von Plesetsk Cosmodrome

Loading…

Nächste Überflüge (nächste 24 Stunden)

TLE

AlterndSource: Space-Track

Epoche: Sep 10, 2026, 01:21 UTC

1 36328U 82025N   26253.05625458  .00002500  00000-0  11715-2 0  9996
2 36328  82.5183 170.1440 0023770  30.7775 329.4793 14.19718322680285

Verfolge METEOR 2-8 DEB in Echtzeit mit AllMySat

Download on the App Store